• Em Portugal
  • Lista de países
  • Para 7 dias
  • Temperatura da água
  • Mapas de satélite
  • Mapa do tempo
  • Widgets de tempo
  • user-avatar
    Iniciar Sessão

    Previsão horária em Niebylec

    Hoje, 23 Abril, Segunda-feira

    Tempo Temperatura Precipitação Vento Pressão Humidade
    00:00 +9°C° 0 mm 0 m/s 737 mmHg 68%
    01:00 +9°C° 0 mm 0 m/s 737 mmHg 67%
    02:00 +8°C° 0 mm 0 m/s 737 mmHg 68%
    03:00 +8°C° 0 mm 0 m/s 737 mmHg 69%
    04:00 +8°C° 0 mm 0 m/s 737 mmHg 70%
    05:00 +10°C° 0 mm 0 m/s 737 mmHg 65%
    06:00 +11°C° 0 mm 0 m/s 737 mmHg 61%
    07:00 +14°C° 0 mm 0 m/s 737 mmHg 56%
    08:00 +15°C° 0 mm 0 m/s 737 mmHg 51%
    09:00 +19°C° 0 mm 1 m/s 737 mmHg 47%
    10:00 +21°C° 0 mm 1 m/s 737 mmHg 42%
    11:00 +22°C° 0 mm 1 m/s 737 mmHg 40%
    12:00 +23°C° 0 mm 1 m/s 736 mmHg 38%
    13:00 +24°C° 0 mm 1 m/s 736 mmHg 36%
    14:00 +24°C° 0 mm 1 m/s 736 mmHg 39%
    15:00 +24°C° 0 mm 1 m/s 735 mmHg 41%
    16:00 +24°C° 0 mm 2 m/s 735 mmHg 44%
    17:00 +21°C° 0,4 mm 2 m/s 735 mmHg 53%
    18:00 +19°C° 0,4 mm 2 m/s 734 mmHg 62%
    19:00 +17°C° 0,4 mm 2 m/s 734 mmHg 71%
    20:00 +17°C° 0,7 mm 2 m/s 734 mmHg 76%
    21:00 +16°C° 0,7 mm 3 m/s 734 mmHg 80%
    22:00 +16°C° 0,7 mm 3 m/s 735 mmHg 85%
    23:00 +14°C° 0,5 mm 3 m/s 735 mmHg 87%

    Amanhã, 24 Abril, Terça-feira

    Tempo Temperatura Precipitação Vento Pressão Humidade
    00:00 +14°C° 0,5 mm 3 m/s 735 mmHg 90%
    01:00 +14°C° 0,5 mm 3 m/s 735 mmHg 92%
    02:00 +13°C° 0,1 mm 3 m/s 735 mmHg 93%
    03:00 +13°C° 0,1 mm 3 m/s 735 mmHg 94%
    04:00 +13°C° 0,1 mm 3 m/s 735 mmHg 95%
    05:00 +13°C° 0 mm 3 m/s 736 mmHg 93%
    06:00 +14°C° 0 mm 4 m/s 736 mmHg 91%
    07:00 +14°C° 0 mm 4 m/s 737 mmHg 89%
    08:00 +16°C° 0 mm 3 m/s 737 mmHg 82%
    09:00 +16°C° 0 mm 3 m/s 738 mmHg 75%
    10:00 +17°C° 0 mm 3 m/s 738 mmHg 68%
    11:00 +18°C° 0 mm 3 m/s 738 mmHg 64%
    12:00 +19°C° 0 mm 3 m/s 738 mmHg 59%
    13:00 +20°C° 0 mm 3 m/s 737 mmHg 54%
    14:00 +20°C° 0 mm 3 m/s 737 mmHg 54%
    15:00 +20°C° 0 mm 3 m/s 737 mmHg 54%
    16:00 +20°C° 0 mm 3 m/s 737 mmHg 53%
    17:00 +18°C° 0 mm 2 m/s 736 mmHg 60%
    18:00 +18°C° 0 mm 1 m/s 736 mmHg 66%
    19:00 +15°C° 0 mm 1 m/s 736 mmHg 72%
    20:00 +15°C° 0 mm 1 m/s 737 mmHg 73%
    21:00 +14°C° 0 mm 1 m/s 737 mmHg 75%
    22:00 +14°C° 0 mm 2 m/s 737 mmHg 76%
    23:00 +14°C° 0 mm 2 m/s 737 mmHg 78%

    Depois de amanhã, 25 Abril, Quarta-feira

    Tempo Temperatura Precipitação Vento Pressão Humidade
    00:00 +13°C° 0 mm 2 m/s 737 mmHg 80%
    01:00 +12°C° 0 mm 3 m/s 736 mmHg 81%
    02:00 +13°C° 0 mm 2 m/s 736 mmHg 83%
    03:00 +13°C° 0 mm 2 m/s 736 mmHg 86%
    04:00 +12°C° 0 mm 2 m/s 736 mmHg 88%
    05:00 +14°C° 0 mm 2 m/s 736 mmHg 83%
    06:00 +15°C° 0 mm 2 m/s 737 mmHg 79%
    07:00 +16°C° 0 mm 2 m/s 737 mmHg 75%
    08:00 +18°C° 0 mm 2 m/s 737 mmHg 68%
    09:00 +20°C° 0 mm 3 m/s 737 mmHg 61%
    10:00 +21°C° 0 mm 3 m/s 737 mmHg 54%
    11:00 +22°C° 0 mm 4 m/s 736 mmHg 53%
    12:00 +23°C° 0 mm 4 m/s 736 mmHg 51%
    13:00 +23°C° 0 mm 4 m/s 735 mmHg 49%
    14:00 +25°C° 0 mm 4 m/s 735 mmHg 50%
    15:00 +25°C° 0 mm 4 m/s 734 mmHg 50%
    16:00 +25°C° 0 mm 4 m/s 734 mmHg 50%
    17:00 +22°C° 0 mm 3 m/s 734 mmHg 56%
    18:00 +20°C° 0 mm 3 m/s 734 mmHg 61%
    19:00 +18°C° 0 mm 3 m/s 734 mmHg 66%
    20:00 +18°C° 0 mm 3 m/s 734 mmHg 69%
    21:00 +17°C° 0 mm 3 m/s 734 mmHg 71%
    22:00 +17°C° 0 mm 4 m/s 734 mmHg 73%
    23:00 +15°C° 0 mm 4 m/s 734 mmHg 76%

    26 Abril, Quinta-feira

    Tempo Temperatura Precipitação Vento Pressão Humidade
    00:00 +16°C° 0 mm 3 m/s 734 mmHg 78%
    01:00 +14°C° 0 mm 3 m/s 734 mmHg 81%
    02:00 +14°C° 0 mm 3 m/s 734 mmHg 84%
    03:00 +14°C° 0 mm 2 m/s 734 mmHg 88%
    04:00 +13°C° 0 mm 2 m/s 735 mmHg 92%
    05:00 +14°C° 0 mm 2 m/s 735 mmHg 87%
    06:00 +15°C° 0 mm 2 m/s 735 mmHg 82%
    07:00 +17°C° 0 mm 2 m/s 735 mmHg 77%
    08:00 +18°C° 0 mm 2 m/s 736 mmHg 72%
    09:00 +19°C° 0 mm 2 m/s 736 mmHg 67%
    10:00 +20°C° 0 mm 2 m/s 736 mmHg 62%
    11:00 +20°C° 0,7 mm 2 m/s 735 mmHg 63%
    12:00 +20°C° 0,7 mm 2 m/s 735 mmHg 63%
    13:00 +20°C° 0,7 mm 2 m/s 735 mmHg 64%
    14:00 +20°C° 0,7 mm 2 m/s 735 mmHg 68%
    15:00 +19°C° 0,7 mm 2 m/s 734 mmHg 72%
    16:00 +19°C° 0,7 mm 1 m/s 734 mmHg 77%
    17:00 +17°C° 1,1 mm 2 m/s 734 mmHg 81%
    18:00 +14°C° 1,1 mm 3 m/s 734 mmHg 85%
    19:00 +13°C° 1,1 mm 4 m/s 735 mmHg 89%
    20:00 +12°C° 0,9 mm 4 m/s 735 mmHg 90%
    21:00 +12°C° 0,9 mm 4 m/s 735 mmHg 91%
    22:00 +11°C° 0,9 mm 4 m/s 736 mmHg 92%
    23:00 +11°C° 0,3 mm 4 m/s 736 mmHg 92%

    27 Abril, Sexta-feira

    Tempo Temperatura Precipitação Vento Pressão Humidade
    00:00 +11°C° 0,3 mm 4 m/s 736 mmHg 92%
    01:00 +10°C° 0,3 mm 3 m/s 736 mmHg 92%
    02:00 +10°C° 0,4 mm 3 m/s 736 mmHg 92%
    03:00 +9°C° 0,4 mm 3 m/s 737 mmHg 91%
    04:00 +9°C° 0,4 mm 2 m/s 737 mmHg 91%
    05:00 +9°C° 0 mm 3 m/s 737 mmHg 87%
    06:00 +10°C° 0 mm 3 m/s 738 mmHg 82%
    07:00 +10°C° 0 mm 4 m/s 738 mmHg 77%
    08:00 +11°C° 0 mm 3 m/s 738 mmHg 69%
    09:00 +12°C° 0 mm 3 m/s 738 mmHg 60%
    10:00 +14°C° 0 mm 3 m/s 739 mmHg 51%
    11:00 +14°C° 0 mm 3 m/s 739 mmHg 49%
    12:00 +16°C° 0 mm 3 m/s 738 mmHg 46%
    13:00 +17°C° 0 mm 2 m/s 738 mmHg 44%
    14:00 +16°C° 0 mm 2 m/s 738 mmHg 44%
    15:00 +16°C° 0 mm 2 m/s 738 mmHg 45%
    16:00 +16°C° 0 mm 2 m/s 738 mmHg 45%
    17:00 +15°C° 0 mm 2 m/s 738 mmHg 51%
    18:00 +13°C° 0 mm 2 m/s 738 mmHg 57%
    19:00 +10°C° 0 mm 2 m/s 738 mmHg 63%
    20:00 +10°C° 0 mm 2 m/s 738 mmHg 65%
    21:00 +9°C° 0 mm 2 m/s 738 mmHg 67%
    22:00 +8°C° 0 mm 2 m/s 739 mmHg 69%
    23:00 +8°C° 0 mm 2 m/s 738 mmHg 71%

    28 Abril, Sábado

    Tempo Temperatura Precipitação Vento Pressão Humidade
    00:00 +8°C° 0 mm 2 m/s 738 mmHg 72%
    01:00 +7°C° 0 mm 2 m/s 738 mmHg 74%
    02:00 +7°C° 0 mm 2 m/s 738 mmHg 75%
    03:00 +7°C° 0 mm 2 m/s 738 mmHg 76%
    04:00 +7°C° 0 mm 2 m/s 737 mmHg 77%
    05:00 +9°C° 0 mm 3 m/s 737 mmHg 74%
    06:00 +11°C° 0 mm 3 m/s 737 mmHg 70%
    07:00 +12°C° 0 mm 3 m/s 737 mmHg 66%
    08:00 +16°C° 0 mm 3 m/s 737 mmHg 62%
    09:00 +18°C° 0 mm 4 m/s 737 mmHg 59%
    10:00 +20°C° 0 mm 4 m/s 737 mmHg 56%
    11:00 +21°C° 0 mm 4 m/s 737 mmHg 53%
    12:00 +22°C° 0 mm 4 m/s 737 mmHg 51%
    13:00 +23°C° 0 mm 4 m/s 736 mmHg 48%
    14:00 +23°C° 0,2 mm 4 m/s 736 mmHg 52%
    15:00 +24°C° 0,2 mm 3 m/s 736 mmHg 56%
    16:00 +22°C° 0,2 mm 3 m/s 735 mmHg 59%
    17:00 +21°C° 0,4 mm 3 m/s 735 mmHg 68%
    18:00 +19°C° 0,4 mm 3 m/s 735 mmHg 76%
    19:00 +17°C° 0,4 mm 3 m/s 735 mmHg 85%
    20:00 +16°C° 0 mm 3 m/s 735 mmHg 87%
    21:00 +15°C° 0 mm 2 m/s 735 mmHg 89%
    22:00 +15°C° 0 mm 2 m/s 735 mmHg 91%
    23:00 +15°C° 0 mm 2 m/s 735 mmHg 91%
    Mostrar mais